King Salmon, AK

4:24 PM AKDT on August 31, 2016 (GMT -0800)
Port Heiden

Weather History for PAPH - March, 2014

Change the Weather History Date:

Monday, March 10, 2014

  Actual Average Record
Temperature  
Mean Temperature 30 °F -  
Max Temperature 46 °F 31 °F 46 °F (2014)
Min Temperature 14 °F 19 °F -7 °F (2007)
Degree Days  
Heating Degree Days 35    
Moisture  
Dew Point 27 °F    
Average Humidity 65    
Maximum Humidity 80    
Minimum Humidity 44    
Precipitation  
Precipitation 0.00 in - - ()
Sea Level Pressure  
Sea Level Pressure 28.80 in    
Wind  
Wind Speed 14 mph (East)    
Max Wind Speed 25 mph    
Max Gust Speed 33 mph    
Visibility 9 miles    
Events      
Averages and records for this station are not official NWS values.
T = Trace of Precipitation, MM = Missing Value Source: NWS Daily Summary

Daily Weather History Graph

Daily Weather History Graph

Search for Another Location

Airport or City:

Trip Planner

Search our weather history database for the weather conditions in past years. The results will help you decide how hot, cold, wet, or windy it might be!

Date:

Astronomy

Mar. 10, 2014 Rise Set
Actual Time 9:02 AM AKDT 8:27 PM AKDT
Civil Twilight 8:25 AM AKDT 9:05 PM AKDT
Nautical Twilight 7:40 AM AKDT 9:50 PM AKDT
Astronomical Twilight 6:54 AM AKDT 10:36 PM AKDT
Moon 2:34 PM AKDT (3/10) 6:11 AM AKDT (3/10)
Length of Visible Light 12h 40m
Length of Day
11h 24m
Waxing Gibbous, 71% of the Moon is Illuminated
Mar 10
Waxing Gibbous
Mar 16
Full
Mar 23
Last Quarter
Mar 30
New
Apr 7
First Quarter

Hourly Weather History & Observations

Time (AKDT) Temp. Windchill Dew Point Humidity Pressure Visibility Wind Dir Wind Speed Gust Speed Precip Events Conditions
12:16 AM 30.2 °F 17.4 °F 19.4 °F 64% 28.97 in 10.0 mi NE 20.7 mph - N/A   Mostly Cloudy
12:36 AM 30.2 °F 18.9 °F 19.4 °F 64% 28.96 in 10.0 mi NNE 16.1 mph - N/A   Mostly Cloudy
12:56 AM 30.2 °F 17.4 °F 19.4 °F 64% 28.95 in 9.0 mi NE 20.7 mph 26.5 mph N/A   Overcast
1:16 AM 30.2 °F 16.5 °F 21.2 °F 69% 28.93 in 3.0 mi NE 24.2 mph 32.2 mph N/A   Overcast
1:36 AM 28.4 °F 13.8 °F 21.2 °F 74% 28.92 in 4.0 mi NE 25.3 mph 29.9 mph N/A   Overcast
1:56 AM 30.2 °F 17.1 °F 23.0 °F 75% 28.91 in 5.0 mi NE 21.9 mph - N/A   Mostly Cloudy
2:16 AM 30.2 °F 16.8 °F 24.8 °F 80% 28.89 in 3.0 mi NE 23.0 mph 27.6 mph N/A   Overcast
2:36 AM 32.0 °F 18.6 °F 24.8 °F 75% 28.88 in 2.0 mi NE 25.3 mph 28.8 mph N/A   Overcast
2:56 AM 32.0 °F 20.1 °F 24.8 °F 75% 28.87 in 2.5 mi NE 19.6 mph 31.1 mph N/A   Overcast
3:16 AM 32.0 °F 21.2 °F 24.8 °F 75% 28.86 in 10.0 mi NE 16.1 mph - N/A   Overcast
3:36 AM 35.6 °F 24.8 °F 26.6 °F 70% 28.85 in 10.0 mi ENE 19.6 mph 33.4 mph N/A   Overcast
3:56 AM 35.6 °F 27.1 °F 26.6 °F 70% 28.84 in 10.0 mi ENE 12.7 mph 25.3 mph N/A   Mostly Cloudy
4:16 AM 35.6 °F 26.6 °F 26.6 °F 70% 28.83 in 10.0 mi ENE 13.8 mph 23.0 mph N/A   Mostly Cloudy
4:36 AM 35.6 °F 26.6 °F 26.6 °F 70% 28.81 in 10.0 mi East 13.8 mph - N/A   Mostly Cloudy
4:56 AM 37.4 °F 26.9 °F 26.6 °F 65% 28.80 in 10.0 mi ESE 20.7 mph 27.6 mph N/A   Mostly Cloudy
5:16 AM 35.6 °F 26.6 °F 26.6 °F 70% 28.80 in 10.0 mi ESE 13.8 mph - N/A   Scattered Clouds
5:36 AM 35.6 °F 30.7 °F 26.6 °F 70% 28.80 in 10.0 mi ENE 5.8 mph - N/A   Partly Cloudy
5:56 AM 35.6 °F 29.9 °F 26.6 °F 70% 28.79 in 10.0 mi East 6.9 mph - N/A   Clear
6:16 AM 33.8 °F 27.0 °F 24.8 °F 70% 28.79 in 10.0 mi ENE 8.1 mph - N/A   Clear
6:36 AM 37.4 °F 29.8 °F 26.6 °F 65% 28.79 in 10.0 mi ESE 11.5 mph - N/A   Mostly Cloudy
6:56 AM 37.4 °F 28.9 °F 26.6 °F 65% 28.78 in 10.0 mi SE 13.8 mph - N/A   Mostly Cloudy
7:16 AM 37.4 °F 28.9 °F 28.4 °F 70% 28.78 in 10.0 mi ESE 13.8 mph - N/A   Partly Cloudy
7:36 AM 37.4 °F 28.9 °F 28.4 °F 70% 28.77 in 10.0 mi ESE 13.8 mph - N/A   Mostly Cloudy
7:56 AM 37.4 °F 30.3 °F 26.6 °F 65% 28.77 in 10.0 mi ESE 10.4 mph 18.4 mph N/A   Scattered Clouds
8:16 AM 35.6 °F 29.2 °F 26.6 °F 70% 28.77 in 10.0 mi ESE 8.1 mph - N/A   Mostly Cloudy
8:36 AM 35.6 °F 29.2 °F 28.4 °F 75% 28.78 in 10.0 mi ESE 8.1 mph - N/A   Overcast
8:56 AM 35.6 °F 30.7 °F 28.4 °F 75% 28.78 in 10.0 mi East 5.8 mph - N/A   Overcast
9:16 AM 37.4 °F 32.8 °F 26.6 °F 65% 28.77 in 10.0 mi East 5.8 mph - N/A   Overcast
9:36 AM 37.4 °F 30.3 °F 26.6 °F 65% 28.77 in 10.0 mi East 10.4 mph - N/A   Overcast
9:56 AM 37.4 °F 32.1 °F 26.6 °F 65% 28.77 in 10.0 mi ESE 6.9 mph - N/A   Overcast
10:16 AM 37.4 °F 31.4 °F 26.6 °F 65% 28.77 in 10.0 mi East 8.1 mph - N/A   Overcast
10:36 AM 37.4 °F 31.4 °F 26.6 °F 65% 28.78 in 10.0 mi East 8.1 mph - N/A   Overcast
10:56 AM 37.4 °F 32.8 °F 26.6 °F 65% 28.78 in 10.0 mi ESE 5.8 mph - N/A   Overcast
11:16 AM 37.4 °F 33.8 °F 28.4 °F 70% 28.78 in 10.0 mi SE 4.6 mph - N/A   Overcast
11:36 AM 37.4 °F 32.8 °F 28.4 °F 70% 28.78 in 10.0 mi SE 5.8 mph - N/A   Overcast
11:56 AM 39.2 °F 33.0 °F 28.4 °F 65% 28.78 in 10.0 mi ESE 9.2 mph - N/A   Mostly Cloudy
12:16 PM 39.2 °F 30.8 °F 28.4 °F 65% 28.78 in 10.0 mi SE 15.0 mph 18.4 mph N/A   Mostly Cloudy
12:36 PM 39.2 °F 33.0 °F 30.2 °F 70% 28.78 in 10.0 mi ESE 9.2 mph - N/A   Overcast
12:56 PM 41.0 °F 34.3 °F 30.2 °F 65% 28.78 in 10.0 mi ESE 11.5 mph - N/A   Mostly Cloudy
1:16 PM 41.0 °F 35.2 °F 30.2 °F 65% 28.78 in 10.0 mi East 9.2 mph - N/A   Scattered Clouds
1:36 PM 42.8 °F 35.8 °F 30.2 °F 61% 28.78 in 10.0 mi ESE 13.8 mph - N/A   Partly Cloudy
1:56 PM 44.6 °F 37.4 °F 30.2 °F 57% 28.78 in 10.0 mi ESE 16.1 mph - N/A   Mostly Cloudy
2:16 PM 44.6 °F 38.8 °F 30.2 °F 57% 28.78 in 10.0 mi ESE 11.5 mph - N/A   Overcast
2:36 PM 44.6 °F 37.4 °F 28.4 °F 53% 28.77 in 10.0 mi ESE 16.1 mph - N/A   Scattered Clouds
2:56 PM 44.6 °F 37.8 °F 28.4 °F 53% 28.77 in 10.0 mi ESE 15.0 mph - N/A   Scattered Clouds
3:16 PM 44.6 °F 38.1 °F 28.4 °F 53% 28.77 in 10.0 mi ESE 13.8 mph - N/A   Overcast
3:36 PM 44.6 °F 39.2 °F 28.4 °F 53% 28.77 in 10.0 mi SE 10.4 mph - N/A   Scattered Clouds
3:56 PM 42.8 °F 37.5 °F 28.4 °F 57% 28.77 in 10.0 mi East 9.2 mph - N/A   Scattered Clouds
4:16 PM 44.6 °F 38.4 °F 28.4 °F 53% 28.76 in 10.0 mi SE 12.7 mph - N/A   Mostly Cloudy
4:36 PM 44.6 °F 39.7 °F 28.4 °F 53% 28.76 in 10.0 mi SE 9.2 mph - N/A   Scattered Clouds
4:56 PM 44.6 °F 38.8 °F 28.4 °F 53% 28.75 in 10.0 mi ESE 11.5 mph - N/A   Scattered Clouds
5:16 PM 44.6 °F 39.2 °F 28.4 °F 53% 28.75 in 10.0 mi ESE 10.4 mph - N/A   Overcast
5:36 PM 44.6 °F 39.7 °F 26.6 °F 49% 28.75 in 10.0 mi SE 9.2 mph - N/A   Overcast
5:56 PM 42.8 °F 38.0 °F 26.6 °F 53% 28.75 in 10.0 mi SE 8.1 mph - N/A   Overcast
6:16 PM 42.8 °F 36.6 °F 26.6 °F 53% 28.75 in 10.0 mi SSE 11.5 mph - N/A   Overcast
6:36 PM 42.8 °F 37.5 °F 26.6 °F 53% 28.75 in 10.0 mi SSE 9.2 mph - N/A   Overcast
6:56 PM 42.8 °F 37.5 °F 26.6 °F 53% 28.75 in 10.0 mi South 9.2 mph - N/A   Overcast
7:16 PM 42.8 °F 39.3 °F 26.6 °F 53% 28.76 in 10.0 mi SSE 5.8 mph - N/A   Overcast
7:36 PM 39.2 °F 31.2 °F 26.6 °F 61% 28.76 in 10.0 mi North 13.8 mph - N/A   Overcast
7:56 PM 37.4 °F 31.4 °F 26.6 °F 65% 28.76 in 9.0 mi North 8.1 mph - N/A   Overcast
8:16 PM 37.4 °F 33.8 °F 26.6 °F 65% 28.76 in 10.0 mi North 4.6 mph - N/A   Overcast
8:36 PM 37.4 °F 34.9 °F 26.6 °F 65% 28.77 in 10.0 mi WSW 3.5 mph - N/A   Overcast
8:56 PM 35.6 °F 32.8 °F 24.8 °F 65% 28.78 in 10.0 mi WSW 3.5 mph - N/A   Overcast
9:16 PM 35.6 °F - 26.6 °F 70% 28.78 in 10.0 mi Calm Calm - N/A   Scattered Clouds
9:36 PM 35.6 °F 30.7 °F 26.6 °F 70% 28.79 in 10.0 mi North 5.8 mph - N/A   Clear
9:56 PM 33.8 °F 27.7 °F 24.8 °F 70% 28.79 in 10.0 mi North 6.9 mph - N/A   Clear
10:16 PM 33.8 °F 27.7 °F 26.6 °F 75% 28.80 in 10.0 mi North 6.9 mph - N/A   Clear
10:36 PM 33.8 °F 28.6 °F 26.6 °F 75% 28.80 in 10.0 mi North 5.8 mph - N/A   Partly Cloudy
10:56 PM 33.8 °F 30.8 °F 26.6 °F 75% 28.81 in 10.0 mi West 3.5 mph - N/A   Mostly Cloudy
11:16 PM 33.8 °F - 26.6 °F 75% 28.81 in 10.0 mi Calm Calm - N/A   Overcast
11:36 PM 32.0 °F - 24.8 °F 75% 28.82 in 10.0 mi Calm Calm - N/A   Overcast
11:56 PM 30.2 °F - 24.8 °F 80% 28.82 in 10.0 mi Calm Calm - N/A   Overcast